カタログに戻る

CZ-6A DEB

運用中PO
NORAD 54997·DEBRIS·🇨🇳 China

打ち上げ Nov 11, 2022 から Taiyuan Satellite Launch Center

Loading…

次のパス (今後24時間)

TLE

最新Source: Space-Track

元期: Sep 14, 2026, 05:39 UTC

1 54997U 22151UN  26257.23601356  .00007494  00000-0  95183-3 0  9996
2 54997  98.6217 344.8237 0069952 306.2710  53.2051 14.80260810203135

AllMySatでCZ-6A DEBをリアルタイム追跡

Download on the App Store